Location: Newark
(42.8481°N, 0.4872°E)
Time: 22:53:01
(UTC+00:00)

Transit 2A - Pass Details

Date: 04 November 2020
Orbit: 595 x 963 km, 66.7° (Epoch: 03 December)

Event Time Altitude Azimuth Distance (km) Brightness Sun altitude
Rises 09:47:35 0° 311° (NW) 3,321 8.8 26.0°
Reaches altitude 10° 09:51:30 10° 284° (WNW) 2,291 8.2 26.3°
Maximum altitude 09:53:42 13° 259° (W) 2,051 8.1 26.5°
Drops below altitude 10° 09:55:49 10° 233° (SW) 2,181 8.5 26.7°
Sets 09:59:21 0° 205° (SSW) 3,009 9.6 27.0°
